Temperature
17 16 14 13 13 13 12 12 12 12 12 11 11 11 11 10 10 11 10 10 10 10 11 11 11 11 11 11 11 11 12 12 12 12 12 12 12 12 12 13 13 13 13
17 16 14 13 13 12 12 12 12 12 11 11 11 11 10 10 10 10 10 10 10 10 10 10 10 11 11 11 11 11 11 12 12 12 12 12 11 11 11 12 12 12 13
17 16 15 14 13 12 12 12 12 11 11 11 11 11 10 10 10 10 10 10 10 10 10 10 10 10 10 10 11 11 11 12 12 11 11 11 11 10 11 11 11 11 12
17 17 15 14 13 12 12 12 12 11 11 11 11 11 10 10 10 10 10 10 10 10 10 10 10 10 10 10 11 11 12 12 11 11 11 11 10 10 10 10 10 10 11
17 16 15 14 13 13 12 12 11 11 11 11 11 10 10 10 10 10 10 10 10 10 10 10 10 11 11 11 11 11 12 11 11 11 11 11 10 9 9 10 10 10 10
17 16 15 14 13 12 12 12 11 11 11 10 10 10 10 10 10 10 10 10 10 10 10 10 10 11 11 11 11 11 11 11 11 11 11 10 10 9 9 9 10 10 10
17 16 15 13 13 12 12 11 11 11 10 10 10 10 10 10 10 10 10 10 10 10 10 10 10 10 10 10 10 11 11 11 11 11 10 10 10 10 9 9 9 10 10
16 15 14 13 13 12 12 11 11 11 10 10 10 10 9 9 9 10 10 10 10 10 10 10 10 10 10 10 10 10 10 10 10 10 10 10 10 10 9 9 9 9 9
15 15 14 13 12 12 11 11 11 11 10 10 10 10 9 9 9 9 9 9 9 10 10 10 10 10 10 10 10 10 10 10 10 10 10 10 10 10 9 9 8 8 8
15 14 14 13 12 12 11 11 11 10 10 10 10 10 9 9 9 9 9 9 9 9 9 9 9 9 9 9 9 9 9 9 9 9 9 9 9 9 9 8 8 8 8
14 14 13 13 12 12 11 11 11 10 10 10 10 10 9 9 9 9 9 9 9 9 9 9 9 9 9 9 9 9 9 9 9 9 9 9 9 9 8 8 7 7 7
15 14 13 13 12 12 11 11 10 10 10 10 9 9 9 9 9 9 9 8 8 8 8 8 8 8 8 8 8 8 8 8 8 8 8 8 9 9 8 7 7 7 7
15 14 13 13 12 12 11 11 10 10 10 10 9 9 9 9 9 9 8 8 8 8 8 8 8 8 8 8 8 8 8 8 8 8 8 8 8 8 8 7 7 7 7
14 14 13 13 12 12 11 11 10 10 10 10 9 9 9 9 9 8 8 8 8 8 8 8 7 7 7 7 7 7 7 8 8 8 8 8 8 8 8 8 7 7 7
14 14 13 13 12 11 11 11 10 10 10 10 9 9 9 9 9 9 8 8 8 8 8 8 7 7 7 7 7 7 7 7 7 8 8 8 8 8 8 8 8 7 7
14 14 13 13 12 11 11 11 10 10 10 9 9 9 9 9 9 8 8 8 8 8 8 7 7 7 7 7 7 7 7 7 7 8 8 8 8 8 8 8 8 8 7
14 14 13 12 12 11 11 11 10 10 10 10 9 9 9 9 9 8 8 8 8 8 7 7 7 7 7 7 7 7 7 7 8 8 8 8 8 8 8 8 8 8 8
14 14 13 12 12 11 11 11 10 10 10 10 9 9 9 9 8 8 8 8 8 8 7 7 7 7 7 7 7 7 7 8 8 8 8 8 8 8 7 7 7 7 7
14 14 13 12 12 11 11 11 10 10 10 10 9 9 9 9 8 8 8 8 8 8 7 7 7 7 7 7 7 7 7 7 8 8 8 8 7 7 7 7 7 6 6
14 14 13 12 12 11 11 11 10 10 10 10 9 9 9 9 8 8 8 8 8 8 7 7 7 7 6 6 6 7 7 7 7 8 7 7 7 7 6 6 6 6 6
14 13 13 12 12 11 11 10 10 10 10 9 9 9 9 8 8 8 8 8 8 7 7 7 7 6 6 6 6 6 7 7 7 7 6 6 6 6 6 6 5 5 5
14 13 13 12 12 11 11 11 10 10 10 9 9 9 9 8 8 8 8 8 7 7 7 6 6 6 6 5 4 4 4 4 4 4 5 5 5 5 5 5 5 5 5
14 13 13 12 12 11 11 10 10 10 10 9 9 9 9 8 8 8 8 7 7 7 6 6 5 5 5 4 4 3 2 2 2 3 3 3 4 3 4 4 4 4 4
13 13 12 12 11 11 11 10 10 10 10 9 9 9 8 8 8 7 7 7 6 6 6 5 5 4 4 4 3 3 2 1 1 1 1 2 2 2 3 3 3 3 3
13 13 12 12 11 11 10 10 10 10 9 9 9 8 8 8 7 7 7 6 6 6 5 5 4 4 4 3 3 2 2 1 1 -0 -0 1 1 2 2 2 2 2 2
12 12 12 11 11 11 10 10 10 9 9 9 8 8 8 7 7 7 6 6 5 5 5 4 4 4 3 3 2 2 1 1 0 -0 -1 -1 -1 -0 0 1 1 1 1
Wind_Speed
5 10 15 16 14 13 11 11 10 10 10 11 11 12 12 11 12 12 12 13 14 14 15 15 16 16 16 16 17 17 17 18 19 19 20 19 18 19 18 18 18 17 18
7 15 17 17 15 13 12 11 11 10 10 10 11 11 11 11 11 11 12 12 13 14 14 14 14 15 15 15 16 16 16 16 17 18 19 18 17 17 18 18 17 16 17
9 16 17 17 16 14 13 11 11 10 10 10 10 10 10 10 10 11 11 11 12 13 13 13 14 14 14 14 15 15 15 15 16 16 18 18 16 16 16 16 16 16 15
13 17 16 18 16 15 13 12 11 11 10 10 9 9 9 10 10 10 11 11 11 12 12 12 13 13 13 13 13 14 14 14 15 15 17 17 15 13 14 14 14 14 14
13 16 16 18 16 15 14 12 12 11 10 9 9 8 8 9 9 10 10 10 10 10 11 11 11 11 12 12 12 13 13 13 14 15 16 17 16 12 12 12 12 12 12
11 15 17 18 16 15 14 13 12 11 10 9 8 8 8 8 8 8 8 8 8 9 9 10 10 10 10 10 10 11 11 11 12 13 14 14 14 11 11 10 10 10 10
9 14 16 18 16 15 14 13 12 11 9 8 7 7 8 7 7 7 7 7 7 7 8 8 9 9 9 9 9 9 9 9 10 10 11 12 12 10 9 9 9 9 9
10 13 15 17 16 15 14 13 12 11 9 8 7 7 6 6 5 5 5 5 5 6 6 7 7 8 8 8 8 9 8 8 8 8 8 9 10 10 9 8 8 8 7
10 11 12 15 16 15 14 13 12 11 10 8 7 6 5 4 4 4 3 3 3 4 5 5 6 7 7 8 8 8 8 7 6 6 7 9 10 10 10 9 9 8 8
6 8 10 12 14 14 14 13 13 11 10 8 7 7 5 4 3 2 1 1 2 3 4 5 6 7 7 7 8 8 8 6 6 6 8 9 10 11 11 11 11 10 10
7 6 7 9 11 12 13 13 12 11 9 8 7 7 6 5 4 3 2 2 3 3 4 6 7 7 8 7 8 9 8 7 7 8 10 10 12 13 13 13 13 13 13
10 8 5 7 10 11 10 11 11 10 9 7 7 7 6 5 4 4 3 3 4 4 5 7 8 8 7 7 8 9 9 9 9 11 12 12 14 15 15 15 15 15 15
9 9 7 7 10 10 9 9 9 8 8 7 6 6 6 5 4 3 3 3 4 4 5 6 7 7 7 8 9 10 10 11 11 13 14 15 16 16 17 17 17 17 17
8 9 8 7 8 9 9 8 8 7 6 6 6 7 6 4 3 3 3 4 5 5 6 6 7 8 8 9 9 10 12 12 13 14 16 16 17 18 19 19 19 19 19
8 8 7 7 7 8 7 6 6 6 6 6 6 6 6 5 4 3 4 5 6 6 6 6 7 7 8 9 10 10 11 13 14 15 16 17 18 19 20 21 21 21 21
8 8 7 7 8 8 6 6 6 6 6 6 5 5 5 5 4 3 3 4 5 6 7 7 7 6 7 7 8 10 11 13 14 15 17 17 18 19 20 21 21 21 22
7 7 7 7 7 7 6 6 6 6 6 5 4 4 4 3 3 3 2 3 5 6 6 6 6 5 5 5 6 9 10 12 13 15 16 17 17 17 18 19 20 21 21
6 7 7 7 7 7 6 6 6 6 6 4 4 3 2 2 2 2 2 3 4 4 4 3 3 3 4 4 5 5 7 10 12 14 15 15 15 14 16 17 18 18 19
6 7 7 7 7 7 6 7 7 6 5 4 4 3 2 1 1 1 1 3 3 2 2 2 2 2 3 5 5 6 5 6 9 11 10 12 13 13 14 14 15 16 17
5 6 7 7 7 6 5 5 4 5 4 5 4 3 3 3 2 1 1 2 2 1 2 2 2 2 3 4 6 6 7 7 6 6 7 9 10 11 12 12 13 13 15
5 6 7 7 6 6 4 4 3 3 2 2 3 4 4 4 3 2 2 2 2 1 2 2 1 3 3 2 3 5 5 5 5 5 5 5 7 10 11 11 12 12 13
5 6 6 7 7 6 4 4 3 3 2 2 2 4 4 4 3 2 1 1 1 1 2 2 1 2 2 2 1 4 5 5 4 4 4 5 6 7 7 11 13 14 15
5 6 6 6 6 6 6 5 4 4 3 2 1 1 3 3 3 2 2 1 1 0 1 2 1 1 3 2 2 2 3 4 5 4 5 5 5 5 6 10 13 15 17
6 5 6 6 6 6 6 6 6 4 3 2 1 0 2 3 3 3 2 2 1 1 2 3 2 2 2 3 3 3 5 5 5 5 4 4 6 7 8 8 11 15 17
6 6 6 6 6 5 5 6 6 4 3 2 1 1 1 3 4 3 3 2 1 1 2 3 3 3 3 4 4 3 4 4 7 7 9 6 5 6 7 8 9 12 17
6 6 6 7 5 5 5 6 6 6 5 3 1 0 1 1 2 3 3 2 2 2 3 4 4 5 5 5 5 5 5 5 5 6 9 10 9 7 8 8 8 10 15
Wind_Direction
209 193 174 157 153 150 144 136 127 118 112 105 97 92 87 82 77 71 66 62 58 57 58 58 57 56 56 55 54 53 51 48 46 46 44 46 51 53 53 52 49 45 46
165 179 173 160 157 154 149 140 131 121 113 109 102 94 89 83 78 72 66 61 57 56 58 57 56 55 53 52 52 51 51 49 48 47 42 37 44 51 50 48 48 46 46
151 171 171 162 160 157 152 144 137 129 119 112 105 99 93 87 80 73 67 63 58 56 58 57 55 55 52 50 49 49 49 50 48 44 37 28 30 48 49 47 46 45 43
156 167 168 164 162 159 155 148 142 137 126 117 109 103 97 91 81 74 69 64 60 58 57 56 55 54 52 49 47 47 48 48 46 41 33 25 21 40 45 44 43 43 41
155 164 166 165 164 162 159 155 147 140 133 125 115 107 101 92 82 75 69 65 62 59 56 54 52 51 50 47 45 45 47 45 42 38 31 23 16 31 40 40 39 37 36
153 163 168 167 166 165 163 161 153 148 142 135 126 118 109 95 84 76 70 66 62 58 55 51 48 46 44 42 41 41 42 43 40 35 27 19 10 18 28 30 30 30 29
152 163 170 169 169 167 166 163 157 152 148 144 138 131 118 105 94 85 75 66 58 53 49 45 42 39 36 34 33 32 34 37 38 29 19 10 2 5 11 14 14 14 16
154 162 173 173 172 170 169 166 161 157 156 154 151 142 131 117 107 94 83 69 55 46 40 35 32 29 26 23 22 23 25 28 28 17 4 355 348 346 348 351 351 351 351
153 159 174 177 174 173 171 170 169 165 165 166 160 151 143 134 125 110 89 64 45 34 26 19 15 13 12 10 9 10 11 15 16 357 343 335 330 329 328 328 327 326 326
149 162 173 173 172 173 172 174 172 171 170 172 167 159 152 147 139 134 121 30 3 1 356 354 354 354 354 353 352 351 353 354 346 331 321 317 317 318 317 316 315 312 310
167 170 175 167 166 169 171 175 175 176 176 174 171 163 157 157 160 167 186 261 306 322 329 333 337 340 344 342 335 333 336 331 320 311 307 306 311 313 312 310 309 308 304
181 183 179 168 163 165 168 173 175 176 176 173 169 167 167 171 181 192 219 253 290 312 320 325 329 337 340 330 324 323 318 313 306 300 299 303 308 310 310 308 306 304 302
185 185 182 172 166 164 164 168 170 171 170 171 173 175 174 175 187 205 232 261 281 294 300 306 312 316 318 315 312 310 306 303 297 294 295 299 303 305 306 306 305 303 300
182 190 184 173 167 166 164 163 165 163 164 172 179 177 172 176 193 217 241 258 270 280 286 291 294 298 299 299 297 296 296 294 292 292 294 296 300 302 303 302 301 300 298
186 189 184 170 168 163 155 156 158 162 168 177 176 181 184 185 200 218 245 262 271 276 275 278 282 287 290 292 291 286 286 288 289 289 289 293 296 299 300 301 300 299 298
187 187 177 171 165 157 154 153 155 157 158 158 167 180 188 195 202 217 242 259 270 272 271 272 276 280 284 286 286 286 284 285 286 285 285 287 290 294 298 299 300 299 299
184 179 173 170 157 153 152 152 149 151 151 154 166 166 174 195 212 219 236 260 274 282 282 284 286 284 283 285 283 287 285 282 281 281 282 281 283 288 293 298 300 301 301
166 164 167 163 153 150 146 142 139 143 141 145 146 147 164 193 211 206 234 270 293 300 292 280 279 290 287 287 285 284 282 281 279 279 280 279 281 284 290 297 303 305 306
156 155 152 149 150 148 136 129 125 123 120 121 116 110 101 95 117 174 244 291 314 314 304 296 294 273 287 293 289 282 276 273 275 280 280 282 283 284 288 295 303 307 309
129 137 140 134 136 132 120 110 102 94 88 88 91 87 79 67 65 78 18 350 356 351 333 327 303 292 275 289 297 291 280 275 276 275 278 286 290 291 292 294 300 303 307
115 127 136 136 139 137 128 127 123 118 101 81 72 70 63 56 51 55 29 360 2 343 315 319 311 311 302 312 320 309 294 287 286 275 274 284 293 296 297 298 300 298 299
135 137 138 141 143 144 139 132 127 126 117 104 69 55 53 51 45 45 31 351 351 340 341 338 328 314 301 335 333 325 326 326 324 296 290 284 280 291 295 299 299 294 291
152 156 152 146 141 136 127 113 95 82 73 67 53 32 22 31 33 34 21 359 345 319 301 299 272 249 286 297 224 240 296 293 305 284 274 269 276 283 287 293 289 287 287
172 158 146 142 138 137 137 139 140 145 156 177 169 138 356 19 22 20 11 359 331 296 284 287 270 238 235 275 278 235 232 246 280 300 287 278 275 274 274 281 281 281 281
165 157 149 139 136 140 142 145 139 136 146 146 131 72 8 0 4 2 356 346 323 295 278 278 281 257 230 241 248 252 256 252 239 261 284 281 277 260 262 264 271 274 276
161 157 151 146 145 147 144 144 146 148 151 147 152 155 333 330 329 338 337 326 305 290 279 274 266 262 252 249 249 241 241 248 248 253 276 286 283 270 260 258 259 265 270
Height
1546 1546 1548 1550 1551 1552 1553 1554 1555 1555 1556 1556 1556 1556 1556 1556 1556 1555 1555 1555 1555 1555 1554 1554 1553 1553 1553 1552 1552 1551 1551 1551 1551 1551 1551 1551 1551 1551 1551 1551 1552 1552 1552
1546 1547 1548 1550 1551 1553 1554 1555 1555 1556 1556 1557 1557 1557 1557 1557 1557 1557 1556 1556 1556 1555 1555 1555 1554 1554 1553 1553 1553 1552 1552 1551 1552 1552 1552 1552 1552 1552 1552 1552 1552 1552 1552
1546 1547 1549 1550 1551 1553 1554 1555 1556 1557 1557 1558 1558 1558 1558 1558 1558 1558 1557 1557 1557 1556 1556 1555 1555 1554 1554 1554 1553 1553 1553 1552 1552 1553 1552 1552 1552 1553 1552 1552 1552 1551 1551
1547 1547 1549 1550 1552 1553 1555 1556 1556 1557 1558 1559 1559 1559 1559 1559 1559 1559 1558 1558 1557 1557 1557 1556 1556 1555 1555 1554 1554 1554 1554 1554 1554 1554 1553 1553 1553 1553 1553 1552 1552 1552 1551
1547 1548 1549 1551 1552 1554 1555 1556 1557 1558 1559 1559 1560 1560 1560 1560 1560 1560 1559 1559 1558 1558 1558 1557 1557 1556 1556 1555 1555 1555 1555 1555 1555 1555 1554 1554 1554 1554 1553 1553 1552 1552 1551
1547 1548 1549 1551 1553 1554 1555 1557 1558 1558 1559 1560 1561 1561 1561 1561 1561 1561 1560 1560 1559 1559 1558 1558 1558 1557 1557 1556 1556 1556 1556 1555 1555 1555 1555 1555 1554 1554 1554 1553 1552 1552 1551
1547 1548 1550 1551 1553 1555 1556 1557 1558 1559 1560 1561 1561 1562 1562 1562 1562 1562 1561 1561 1560 1560 1559 1559 1559 1558 1558 1557 1557 1557 1556 1556 1556 1555 1555 1555 1554 1554 1554 1553 1552 1552 1551
1547 1548 1550 1552 1553 1555 1556 1558 1559 1560 1561 1561 1562 1562 1562 1563 1562 1562 1562 1562 1561 1561 1560 1560 1560 1559 1559 1558 1558 1557 1557 1556 1556 1555 1555 1555 1554 1553 1553 1552 1552 1551 1551
1547 1548 1550 1552 1554 1555 1557 1558 1559 1560 1561 1562 1562 1563 1563 1563 1563 1563 1563 1562 1562 1562 1561 1561 1560 1560 1559 1559 1558 1557 1557 1556 1556 1555 1555 1554 1553 1553 1552 1552 1551 1551 1550
1546 1548 1550 1552 1554 1555 1557 1558 1559 1560 1561 1562 1563 1563 1564 1564 1564 1564 1563 1563 1563 1562 1562 1561 1561 1560 1559 1559 1558 1557 1557 1556 1555 1555 1554 1553 1552 1551 1551 1551 1550 1550 1549
1545 1547 1549 1551 1553 1555 1557 1558 1560 1561 1562 1562 1563 1563 1564 1564 1564 1564 1563 1563 1563 1562 1562 1561 1561 1560 1559 1558 1558 1557 1556 1555 1554 1554 1553 1552 1551 1550 1549 1549 1549 1548 1548
1543 1546 1548 1550 1553 1554 1556 1558 1559 1560 1561 1562 1563 1563 1563 1563 1563 1563 1563 1563 1563 1562 1561 1561 1560 1559 1558 1557 1557 1556 1555 1554 1553 1552 1551 1550 1549 1548 1547 1547 1546 1546 1545
1542 1544 1547 1549 1552 1554 1556 1557 1559 1560 1561 1561 1562 1562 1563 1563 1563 1563 1563 1562 1562 1561 1560 1560 1559 1558 1557 1556 1555 1554 1553 1552 1550 1549 1548 1547 1546 1545 1544 1544 1543 1543 1542
1541 1543 1546 1548 1551 1553 1555 1556 1558 1559 1560 1561 1561 1561 1562 1562 1562 1562 1561 1561 1560 1560 1559 1558 1557 1556 1555 1554 1552 1551 1550 1549 1547 1546 1545 1544 1543 1541 1540 1540 1539 1539 1538
1539 1542 1544 1547 1549 1552 1554 1555 1557 1558 1559 1560 1560 1560 1560 1560 1560 1560 1559 1559 1558 1558 1557 1555 1554 1553 1552 1551 1549 1548 1546 1545 1544 1542 1541 1540 1539 1537 1536 1535 1534 1534 1533
1537 1540 1542 1545 1548 1550 1552 1554 1555 1557 1558 1558 1559 1559 1559 1559 1559 1558 1558 1557 1556 1555 1554 1553 1551 1550 1549 1547 1546 1544 1543 1541 1539 1538 1537 1535 1534 1533 1531 1530 1529 1528 1527
1536 1538 1540 1543 1546 1548 1551 1553 1554 1555 1556 1557 1557 1557 1557 1557 1557 1556 1555 1555 1554 1553 1551 1550 1548 1547 1545 1543 1542 1540 1538 1536 1535 1533 1532 1531 1529 1528 1527 1525 1524 1522 1521
1534 1536 1539 1541 1544 1547 1549 1551 1553 1554 1555 1555 1555 1555 1555 1555 1554 1554 1553 1552 1551 1549 1548 1546 1544 1543 1541 1539 1537 1535 1533 1531 1530 1528 1527 1526 1524 1523 1522 1520 1518 1517 1516
1532 1534 1537 1539 1542 1545 1547 1549 1551 1552 1553 1553 1554 1553 1553 1553 1552 1551 1550 1549 1548 1546 1544 1543 1541 1539 1536 1534 1532 1530 1528 1526 1525 1523 1522 1520 1519 1517 1516 1515 1513 1512 1510
1531 1533 1535 1538 1541 1543 1546 1548 1549 1550 1551 1551 1551 1551 1551 1550 1549 1548 1547 1546 1544 1543 1541 1539 1537 1535 1532 1529 1526 1524 1522 1520 1519 1517 1516 1515 1514 1513 1511 1510 1508 1507 1505
1530 1532 1534 1536 1539 1541 1543 1545 1547 1548 1548 1549 1549 1549 1548 1547 1546 1545 1544 1543 1541 1539 1537 1535 1533 1530 1528 1525 1521 1517 1515 1514 1512 1511 1511 1510 1509 1508 1506 1504 1503 1501 1499
1529 1530 1532 1535 1537 1539 1541 1543 1544 1546 1546 1546 1546 1546 1545 1544 1543 1542 1541 1539 1538 1536 1534 1531 1529 1526 1524 1522 1518 1513 1508 1506 1504 1505 1505 1504 1503 1502 1500 1498 1496 1495 1492
1527 1529 1531 1533 1535 1537 1539 1540 1542 1543 1543 1544 1544 1543 1543 1542 1540 1539 1537 1536 1534 1532 1530 1528 1525 1523 1520 1519 1517 1515 1510 1504 1499 1495 1495 1495 1495 1494 1493 1491 1489 1487 1485
1524 1527 1529 1531 1533 1534 1536 1538 1539 1540 1540 1541 1541 1540 1540 1539 1537 1536 1534 1532 1530 1528 1526 1524 1521 1519 1516 1514 1512 1511 1509 1505 1500 1490 1488 1488 1488 1486 1484 1483 1481 1479 1477
1522 1524 1526 1528 1530 1532 1533 1535 1536 1537 1537 1538 1538 1537 1536 1535 1534 1532 1530 1528 1526 1524 1522 1519 1517 1515 1512 1509 1507 1505 1502 1500 1496 1491 1481 1478 1477 1477 1476 1474 1472 1471 1469
1519 1522 1524 1526 1528 1529 1531 1532 1533 1534 1534 1534 1534 1534 1533 1532 1530 1528 1526 1524 1522 1519 1517 1514 1512 1510 1507 1504 1502 1499 1497 1494 1490 1486 1478 1471 1468 1466 1466 1465 1464 1462 1460